Back to catalog

NOAA 16 DEB

AlivePO
NORAD 42374·DEBRIS·🇺🇸 United States

Launched Sep 21, 2000 from Vandenberg Space Force Base

Loading…

Next Passes (next 24 hours)

TLE

FreshSource: Space-Track

Epoch: Sep 13, 2026, 21:48 UTC

1 42374U 00055RS  26256.90894720  .00035793  00000-0  39242-2 0  9999
2 42374  98.8346  58.9652 0006449 116.1764 244.0113 14.87607399541935

Track NOAA 16 DEB in real time with AllMySat

Download on the App Store